This is the latest recevied weather packets stored in our database for station/object YF9UAG-16. If no packets are shown the sender has not sent any weather packets the latest 10 day(s).
| Time | Temp. | Humidity | Pressure | Rain* | Wind** | Luminosity | Snow |
|---|---|---|---|---|---|---|---|
| 1777608547 | 30.56° C | 67% | 1009 hPa | - | - | 0 W/m² | - |
| 1777608225 | 30.56° C | 67% | 1009 hPa | - | - | 0 W/m² | - |
| 1777607903 | 31.11° C | 66% | 1009 hPa | - | - | 0 W/m² | - |
| 1777607581 | 31.11° C | 66% | 1009 hPa | - | - | 0 W/m² | - |
| 1777607259 | 31.11° C | 65% | 1009 hPa | - | - | 0 W/m² | - |
| 1777606937 | 31.67° C | 65% | 1009 hPa | - | - | 0 W/m² | - |
| 1777606615 | 31.11° C | 65% | 1009 hPa | - | - | 0 W/m² | - |
| 1777606293 | 31.67° C | 66% | 1009 hPa | - | - | 0 W/m² | - |
| 1777605971 | 31.67° C | 66% | 1009 hPa | - | - | 0 W/m² | - |
| 1777605649 | 31.11° C | 66% | 1009 hPa | - | - | 0 W/m² | - |
| 1777605327 | 31.11° C | 66% | 1009 hPa | - | - | 0 W/m² | - |
| 1777605005 | 31.11° C | 66% | 1009 hPa | - | - | 0 W/m² | - |
| 1777604683 | 31.11° C | 67% | 1009 hPa | - | - | 0 W/m² | - |
| 1777604361 | 31.11° C | 67% | 1010 hPa | - | - | 0 W/m² | - |
| 1777604039 | 30.56° C | 67% | 1010 hPa | - | - | 0 W/m² | - |
| 1777603717 | 30.56° C | 69% | 1010 hPa | - | - | 0 W/m² | - |
| 1777603396 | 30.56° C | 69% | 1010 hPa | - | - | 0 W/m² | - |
| 1777603076 | 30° C | 72% | 1010 hPa | - | - | 0 W/m² | - |
| 1777602751 | 30° C | 73% | 1010 hPa | - | - | 0 W/m² | - |
| 1777602429 | 29.44° C | 73% | 1010 hPa | - | - | 0 W/m² | - |
| 1777602107 | 29.44° C | 73% | 1010 hPa | - | - | 0 W/m² | - |
| 1777601786 | 28.89° C | 75% | 1010 hPa | - | - | 0 W/m² | - |
| 1777601463 | 29.44° C | 73% | 1010 hPa | - | - | 0 W/m² | - |
| 1777601142 | 28.89° C | 73% | 1011 hPa | - | - | 0 W/m² | - |
| 1777600819 | 28.89° C | 76% | 1011 hPa | - | - | 0 W/m² | - |
* Rain since midnight (hover to see other rain measurements)
** Current wind speed in m/s (hover to see current wind gust speed)